Weather History for KMYL - February, 2014

Change the Weather History Date:

Monday, February 3, 2014

  Actual Average Record
Temperature  
Mean Temperature 16 °F 21 °F  
Max Temperature 26 °F 31 °F 46 °F (2000)
Min Temperature 5 °F 11 °F -28 °F (1950)
Degree Days  
Heating Degree Days 49 44  
Month to date heating degree days 136 132  
Since 1 July heating degree days 5028 5606  
Cooling Degree Days 0 0  
Month to date cooling degree days 0 0  
Year to date cooling degree days 0 0  
Moisture  
Dew Point 16 °F    
Average Humidity 72    
Maximum Humidity 88    
Minimum Humidity 55    
Precipitation  
Precipitation 0.15 in 0.07 in 0.68 in (1953)
Month to date precipitation 0.16 0.22  
Year to date precipitation 1.82 1.95  
Sea Level Pressure  
Sea Level Pressure 29.78 in    
Wind  
Wind Speed 6 mph (SW)    
Max Wind Speed 15 mph    
Max Gust Speed 20 mph    
Visibility 6 miles    
Events Fog , Snow    
T = Trace of Precipitation, MM = Missing Value Source: NWS Daily Summary

Daily Weather History Graph

Daily Weather History Graph

Search for Another Location

Airport or City:

Trip Planner

Search our weather history database for the weather conditions in past years. The results will help you decide how hot, cold, wet, or windy it might be!

Date:

Astronomy

Feb. 03, 2014 Rise Set
Actual Time 8:01 AM MST 5:55 PM MST
Civil Twilight 7:30 AM MST 6:26 PM MST
Nautical Twilight 6:55 AM MST 7:01 PM MST
Astronomical Twilight 6:21 AM MST 7:35 PM MST
Moon 9:52 AM MST (2/3) 11:05 PM MST (2/3)
Length of Visible Light 10h 56m
Length of Day
9h 54m
Waxing Crescent, 20% of the Moon is Illuminated
Feb 3
Waxing Crescent
Feb 6
First Quarter
Feb 14
Full
Feb 22
Last Quarter
Mar 1
New

Hourly Weather History & Observations

Time (MST) Temp. Windchill Dew Point Humidity Pressure Visibility Wind Dir Wind Speed Gust Speed Precip Events Conditions
12:51 AM 24.1 °F 15.2 °F 19.0 °F 81% 29.84 in 10.0 mi SSE 8.1 mph - N/A   Overcast
1:25 AM 24.1 °F 15.2 °F 19.9 °F 84% 29.73 in 2.5 mi SSE 8.1 mph - 0.01 in Snow Light Snow
1:31 AM 24.1 °F 15.2 °F 19.9 °F 84% 29.72 in 5.0 mi SSE 8.1 mph - 0.01 in Snow Light Snow
1:51 AM 24.1 °F 14.4 °F 19.0 °F 81% 29.82 in 9.0 mi SE 9.2 mph - 0.01 in Snow Light Snow
2:51 AM 24.1 °F 13.1 °F 19.0 °F 81% 29.81 in 6.0 mi SSE 11.5 mph - 0.00 in Snow Light Snow
3:06 AM 23.0 °F 12.4 °F 19.0 °F 85% 29.71 in 2.0 mi SSE 10.4 mph - 0.00 in Snow Light Snow
3:16 AM 23.0 °F 12.4 °F 19.9 °F 88% 29.70 in 1.5 mi SSE 10.4 mph - 0.00 in Snow Light Snow
3:36 AM 23.0 °F 13.1 °F 19.9 °F 88% 29.69 in 1.0 mi SE 9.2 mph - 0.01 in Snow Light Snow
3:48 AM 23.0 °F 13.1 °F 19.4 °F 86% 29.69 in 1.5 mi SSE 9.2 mph - 0.02 in Snow Light Snow
3:51 AM 23.0 °F 13.1 °F 19.9 °F 88% 29.79 in 2.0 mi SSE 9.2 mph - 0.02 in Snow Light Snow
4:03 AM 23.0 °F 13.1 °F 19.9 °F 88% 29.69 in 4.0 mi SSE 9.2 mph - 0.00 in Snow Light Snow
4:44 AM 23.0 °F 13.9 °F 19.9 °F 88% 29.68 in 1.8 mi SSE 8.1 mph - 0.00 in Snow Light Snow
4:51 AM 23.0 °F 13.1 °F 19.9 °F 88% 29.78 in 1.2 mi South 9.2 mph - 0.01 in Snow Light Snow
5:03 AM 23.0 °F 14.7 °F 19.9 °F 88% 29.68 in 1.0 mi SSW 6.9 mph - 0.01 in Snow Light Snow
5:10 AM 23.0 °F 17.0 °F 19.9 °F 88% 29.68 in 0.5 mi SW 4.6 mph - 0.02 in Fog , Snow Snow
5:38 AM 23.0 °F 15.8 °F 19.9 °F 88% 29.68 in 1.0 mi South 5.8 mph - 0.06 in Snow Light Snow
5:48 AM 23.0 °F 18.4 °F 19.4 °F 86% 29.69 in 1.2 mi WSW 3.5 mph - 0.06 in Snow Light Snow
5:51 AM 23.0 °F 18.4 °F 19.9 °F 88% 29.79 in 1.0 mi SW 3.5 mph - 0.06 in Snow Light Snow
6:10 AM 23.0 °F - 19.9 °F 88% 29.68 in 1.2 mi Calm Calm - 0.01 in Snow Light Snow
6:16 AM 23.0 °F - 19.9 °F 88% 29.69 in 0.8 mi Calm Calm - 0.02 in Snow Light Snow
6:29 AM 23.0 °F 17.0 °F 19.9 °F 88% 29.68 in 1.0 mi South 4.6 mph - 0.03 in Snow Light Snow
6:35 AM 23.0 °F 14.7 °F 19.9 °F 88% 29.69 in 1.8 mi South 6.9 mph - 0.03 in Snow Light Snow
6:42 AM 23.0 °F 18.4 °F 19.9 °F 88% 29.69 in 3.0 mi SW 3.5 mph - 0.03 in Snow Light Snow
6:51 AM 23.0 °F 18.4 °F 19.0 °F 85% 29.80 in 4.0 mi Variable 3.5 mph - 0.03 in Snow Light Snow
7:02 AM 23.0 °F 18.4 °F 19.0 °F 85% 29.69 in 3.0 mi SW 3.5 mph - 0.00 in Snow Light Snow
7:20 AM 21.9 °F 11.0 °F 18.0 °F 85% 29.69 in 1.8 mi West 10.4 mph - 0.00 in Snow Light Snow
7:26 AM 21.9 °F 11.0 °F 18.0 °F 85% 29.70 in 1.0 mi NW 10.4 mph - 0.01 in Snow Light Snow
7:43 AM 21.9 °F 17.2 °F 18.0 °F 85% 29.70 in 2.0 mi NW 3.5 mph - 0.02 in Snow Light Snow
7:51 AM 21.9 °F 14.5 °F 18.0 °F 85% 29.82 in 1.8 mi NW 5.8 mph - 0.02 in Snow Light Snow
8:03 AM 21.0 °F - 18.0 °F 88% 29.71 in 2.0 mi Calm Calm - 0.00 in Snow Light Snow
8:12 AM 21.0 °F 16.2 °F 17.1 °F 85% 29.71 in 5.0 mi WNW 3.5 mph - 0.00 in Snow Light Snow
8:24 AM 21.0 °F 14.6 °F 16.0 °F 81% 29.71 in 9.0 mi WNW 4.6 mph - 0.00 in Snow Light Snow
8:51 AM 19.9 °F 13.4 °F 16.0 °F 85% 29.85 in 10.0 mi NW 4.6 mph - 0.00 in   Overcast
9:11 AM 21.0 °F 12.4 °F 16.0 °F 81% 29.74 in 10.0 mi WNW 6.9 mph - N/A   Overcast
9:25 AM 19.9 °F 12.1 °F 16.0 °F 85% 29.74 in 10.0 mi NW 5.8 mph - N/A   Overcast
9:35 AM 19.9 °F 13.4 °F 16.0 °F 85% 29.74 in 10.0 mi WNW 4.6 mph - N/A   Mostly Cloudy
9:51 AM 19.9 °F 12.1 °F 16.0 °F 85% 29.88 in 10.0 mi WNW 5.8 mph - N/A   Partly Cloudy
10:51 AM 23.0 °F 12.4 °F 16.0 °F 74% 29.87 in 10.0 mi West 10.4 mph - N/A   Mostly Cloudy
11:51 AM 24.1 °F 15.2 °F 12.9 °F 62% 29.87 in 10.0 mi WNW 8.1 mph - N/A   Scattered Clouds
12:51 PM 25.0 °F 15.5 °F 12.9 °F 60% 29.87 in 10.0 mi West 9.2 mph - N/A   Mostly Cloudy
1:51 PM 25.0 °F 18.1 °F 10.9 °F 55% 29.86 in 10.0 mi WNW 5.8 mph - N/A   Mostly Cloudy
2:51 PM 23.0 °F 14.7 °F 10.9 °F 60% 29.86 in 10.0 mi West 6.9 mph - N/A   Overcast
3:51 PM 21.9 °F 13.4 °F 10.9 °F 63% 29.87 in 10.0 mi West 6.9 mph - N/A   Mostly Cloudy
4:51 PM 21.0 °F 14.6 °F 12.0 °F 68% 29.89 in 10.0 mi West 4.6 mph - 0.00 in   Overcast
5:51 PM 16.0 °F - 10.9 °F 81% 29.91 in 10.0 mi Calm Calm - N/A   Mostly Cloudy
6:51 PM 18.0 °F - 12.0 °F 78% 29.92 in 10.0 mi Calm Calm - 0.00 in   Overcast
7:51 PM 16.0 °F - 12.0 °F 84% 29.94 in 10.0 mi Calm Calm - 0.00 in   Overcast
8:51 PM 10.0 °F 3.6 °F 6.1 °F 84% 29.98 in 10.0 mi West 3.5 mph - N/A   Clear
9:51 PM 7.0 °F - 3.9 °F 87% 29.99 in 10.0 mi Calm Calm - N/A   Partly Cloudy
10:51 PM 7.0 °F 0.1 °F 3.0 °F 84% 29.99 in 10.0 mi North 3.5 mph - N/A   Overcast
11:51 PM 5.0 °F -2.1 °F 1.0 °F 84% 30.00 in 10.0 mi NNE 3.5 mph - N/A   Scattered Clouds